Погода в Аральске

Погода в Аральске : погода сейчас, прогноз погоды и архив. Всё, что Вы хотите узнать о погоде в Аральске!

Хотите узнать прогноз погоды в Аральске? Тогда Вам сюда: Погода в Аральске

Поиск расширенной информации на нашем сайте:

Другие новости

Новости СМИ2

Главная страница сайта

Новости сайта

03.07.2017

Напоминаем, что на нашем специализированном сайте Метеоцентр.Азия вы можете получить высокодетализированные автоматические прогнозы погоды по пунктам России, СНГ и мира в авиационном формате (включающие направление и скорость ветра, видимость, явления погоды, количество и форму облачности, нижнюю и верхнюю границу облачности).


Погода в Аральске - сегодня

Время (UTC), дата Ветер
(°,м/с) 
Видим.   Явления Облачность Т
(°С)
Тd
(°С)
f(%) Тe
(°С)
Pmin
(гПа)
dP
(гПа)
Po
(мм)
O2
(г/м3)
Тmin Tmax R s Состояние
почвы
15 14.10.17 260 (З) н/о    ясно 
+11.6 -0.2 44 +12  1017.2  1.3  758  293    +20.2       
18 14.10.17 230 (ЮЗ) н/о    ясно 
+7.2 +1.3 66 +7  1017.2  758  297    +20.2       
21 14.10.17 220 (ЮЗ) н/о    ясно 
+5.1 +2.1 81 +6  1017.6  0.3  758  300           
00 15.10.17 220 (ЮЗ) н/о    8/0 средняя 
[Ac und]
+4 +2 87 +4  1017.7  0.1  758  301           
03 15.10.17 030 (СВ) 20000 м    9/8 600 м средняя 
[Sc|Ac und]
+6.6 +2.7 76 +8  1018  0.3  759  298  +3.9        сухая 
06 15.10.17 230 (ЮЗ) 20000 м    9/5 600 м средняя 
[Sc|Ac und]
+13.2 +6.2 62 +14  1017.9  0.1  759  291  +3.9         
09 15.10.17 160 (Ю) 20000 м    8/5 1000 м верхняя 
[Cu hum|Ci fib]
+19 +2.7 34 +20  1016  -1.8  757  285           
12 15.10.17 130 (ЮВ) 20000 м    9/0 средняя, верхняя 
[Ac cuf|Ci sp]
+18.6 +2.9 35 +20  1014.2  -1.8  756  285           
15 15.10.17 070 (В) н/о    5/0 верхняя 
[Ci sp]
+13.1 +1.1 44 +13  1013.1  -1.2  755  290    +19.4       
18 15.10.17 110 (В) н/о    9/0 верхняя 
[Cs]
+10.8 +0.9 50 +11  1011.5  -1.7  754  292    +19.4       
21 15.10.17 170 (Ю) н/о    3/0 верхняя 
[Ci sp]
+7.5 +3.2 74 +8  1010.3  -1.1  753  295           
00 16.10.17 090 (В) н/о    5/0 верхняя 
[Ci sp]
+6.6 +1.9 72 +6  1009.1  -1.3  752  296           
03 16.10.17 100 (В) 20000 м    9/0 средняя, верхняя 
[Ac und|Ci sp]
+9.2 -0.5 51 +8  1008  -1  751  293  +6.4         
06 16.10.17 120 (ЮВ) 20000 м    9/4 600 м средняя, верхняя 
[Sc|Ac und|Ci sp]
+14 -0.2 38 +13  1007.1  -0.8  751  288  +6.4         
09 16.10.17 180 (Ю) 20000 м    9/6 600 м средняя, верхняя 
[Sc|Ac und|Ci sp]
+16 +4 45 +16  1006.8  -0.3  750  285           
12 16.10.17 230 (ЮЗ) 20000 м  {ливн. осадки}  9/6 600 м кучево-дожд., средняя 
[Cb calv|Ac und]
+14.2 +7.7 65 +13  1007.5  0.7  751  286    +1.6       
15 16.10.17 230 (ЮЗ) н/о    6/3 600 м кучево-дожд., средняя 
[Cb calv|Ac und]
+10.8 +8 83 +10  1008.6  752  290    +16.3  0.0     
18 16.10.17 150 (ЮВ) н/о    3/0 средняя 
[Ac und]
+6.5 +4.9 89 +6  1008.8  0.1  752  295      0.0    влажная 
21 16.10.17 130 (ЮВ) н/о    10/0 средняя 
[Ac As]
+6.7 +4.6 86 +8  1008.3  -0.4  751  295           
00 17.10.17 160 (Ю) н/о    6/0 средняя 
[Ac und]
+10 +5.6 74 +9  1007.3  -1.1  751  291           
03 17.10.17 150 (ЮВ) 20000 м    10/0 средняя 
[Ac As]
+10.4 +5.6 72 +10  1007.2  751  290  +5.8         
06 17.10.17 160 (Ю) 20000 м    10/6 600 м средняя 
[Sc|Ac As]
+12.4 +6.1 65 +12  1007.1  751  288  +5.8         
09 17.10.17 180 (Ю) 2000 м  дождь  10/10 600 м 
[Ns]
+10.9 +9.9 94 +11  1006  -1.2  750  289           
12 17.10.17 250 (З) 4000 м  слаб. дождь  10/10 300 м 
[Ns]
+11.2 +10.9 98 +12  1004.7  -1.2  749  288           
15 17.10.17 270 (З) н/о  слаб. дождь  10/10 300 м 
[Ns]
+9.2 +8.6 96 +8  1005.8  750  291    +13.3  14     
Время (UTC), дата Ветер
(°,м/с) 
Видим.   Явления Облачность Т
(°С)
Тd
(°С)
f(%) Тe
(°С)
Pmin
(гПа)
dP
(гПа)
Po
(мм)
O2
(г/м3)
Тmin Tmax R s Состояние
почвы

Для получения пояснительной информации подведите курсор к названию столбца.

ПОГОДА в Аральске - архив

Всё, что Вы хотите узнать о погоде в Аральске - удобно и подробно!

Выберите нужную дату (начиная с 1 января 2015* года) и нажмите кнопку "Найти".
Будут отображены архивные сводки погоды по пункту Аральск, начиная с указанной даты.


Отображать данные в формате CSV (для использования в таблицах Excel)


Внимание! Наш архив погоды предназначен исключительно для личного некоммерческого использования в познавательных целях. Если Вам необходимы официальные справки о состоянии погоды (для производственных, юридических, коммерческих и т.п. целей), обращайтесь в органы Росгидромета.

*Примечание: данная дата относится к архиву по метеостанциям СССР (Россия, СНГ, Балтия).
Архив по метеостанциям Зарубежной Европы и Азии (кроме Китая) хранится 10 дней, по другим регионам земного шара (Китай, Африка, Америка, Австралия, Океания) - 1 день.

Аральск - район местоположения метеостанции


Название, широта, долгота, высота метеостанции:
Аральск 46.8°ш. 61.6°д. 62 м над ур. моря [Казахстан]

Дополнительная информация

В oтличие oт бoльшинства пoгoдных сайтoв мы публикуем пoдрoбную метеoинфoрмацию в детальнoм прoфессиoнальнoм фoрмате.

Характеристики температуры и влажнoсти вoздуха измеряются на высoте 2 м в тени вдали oт зданий и деревьев.
Скoрoсть ветра измеряется на высoте 10 м (на урoвне рoста челoвека скoрoсть ветра ниже в 1.5-2 раза). Если метеoстанция нахoдится в гoрoде или в лесу, тo скoрoсть ветра занижена на 2-4 м/с пo сравнению с oткрытым местoм. Скoрoсть ветра над акватoриями крупных рек и oзёр, а также на вершинах хoлмoв на 2-5 м/с выше, чем в oбычных услoвиях.
Атмoсфернoе давление в разных тoчках местнoсти мoжет значительнo oтличаться oт давления на метеoстанции, в зависимoсти oт услoвий рельефа (при пoдъёме на 10 м давление пoнижается примернo на 1 мм рт.ст.).